KE8WMS Weather Reports


time (UTC)temp
C
wind
direction
speed
KPH
gust
KPH
rain 1hr
cm
rain 24hr
cm
rain mn
cm
humidity
%
barometer
mb
20260510180143 13 225 1.6 3.2 0.00 0.03 0.03 45 1015.0
20260510175638 13 240 3.2 4.8 0.00 0.03 0.03 43 1015.0
20260510175134 13 276 6.4 8.0 0.00 0.03 0.03 48 1014.8
20260510174632 12 273 1.6 3.2 0.00 0.03 0.03 48 1014.9
20260510174130 13 223 1.6 1.6 0.00 0.03 0.03 51 1014.8
20260510173625 12 332 1.6 3.2 0.00 0.03 0.03 58 1014.8
20260510173121 12 36 4.8 4.8 0.00 0.03 0.03 49 1014.9
20260510172617 13 80 3.2 3.2 0.00 0.03 0.03 57 1015.1
20260510172113 12 51 3.2 4.8 0.00 0.03 0.03 54 1015.4
20260510171610 12 48 4.8 4.8 0.00 0.03 0.03 55 1015.3
20260510171108 12 9 4.8 4.8 0.00 0.03 0.03 53 1015.4
20260510170604 13 5 4.8 4.8 0.00 0.03 0.03 55 1015.2
20260510170100 12 290 3.2 3.2 0.00 0.03 0.03 57 1015.1
20260510165556 12 69 4.8 4.8 0.00 0.03 0.03 54 1014.9
20260510165052 12 48 1.6 3.2 0.00 0.03 0.03 55 1014.9
20260510164550 12 49 6.4 8.0 0.00 0.03 0.03 51 1015.0
20260510164046 12 43 6.4 8.0 0.00 0.03 0.03 53 1015.1
20260510163542 13 229 1.6 1.6 0.00 0.03 0.03 51 1015.0
20260510163038 13 274 1.6 1.6 0.00 0.03 0.03 55 1014.9
20260510162533 13 212 0.0 0.0 0.00 0.03 0.03 49 1014.8
20260510162031 12 211 0.0 1.6 0.00 0.03 0.03 53 1014.9
20260510161526 11 58 3.2 4.8 0.00 0.03 0.03 55 1015.0
20260510161023 12 221 0.0 1.6 0.00 0.03 0.03 57 1014.6
20260510160520 12 359 8.0 9.7 0.00 0.03 0.03 55 1014.7
20260510160020 13 277 3.2 4.8 0.00 0.03 0.03 54 1014.7
20260510155516 12 274 1.6 1.6 0.00 0.03 0.03 52 1014.7
20260510155013 11 314 6.4 12.9 0.00 0.03 0.03 55 1014.7
20260510154509 12 7 4.8 4.8 0.00 0.03 0.03 57 1014.4
20260510154008 12 11 6.4 9.7 0.00 0.03 0.03 54 1014.5
20260510153504 12 205 3.2 4.8 0.00 0.03 0.03 54 1014.4
20260510153001 12 193 4.8 4.8 0.00 0.03 0.03 55 1014.7
20260510152458 12 299 3.2 3.2 0.00 0.03 0.03 55 1014.5
20260510151954 12 189 4.8 4.8 0.00 0.03 0.03 52 1014.4
20260510151452 12 221 0.0 1.6 0.00 0.03 0.03 54 1014.3
20260510150948 12 45 4.8 8.0 0.00 0.03 0.03 56 1014.3
20260510150444 11 260 1.6 1.6 0.00 0.03 0.03 57 1014.3
20260510145940 11 281 0.0 1.6 0.00 0.03 0.03 57 1014.1
20260510145436 11 322 3.2 4.8 0.00 0.03 0.03 55 1014.6
20260510144933 11 275 3.2 3.2 0.00 0.03 0.03 58 1014.3
20260510144430 10 172 1.6 1.6 0.00 0.03 0.03 59 1014.1
20260510143925 11 307 4.8 4.8 0.00 0.03 0.03 58 1014.0
20260510143421 11 352 9.7 11.3 0.00 0.03 0.03 58 1014.0
20260510142918 10 351 1.6 3.2 0.00 0.03 0.03 57 1014.1
20260510142415 11 308 1.6 3.2 0.00 0.03 0.03 60 1014.1
20260510141911 11 159 1.6 1.6 0.00 0.03 0.03 58 1013.9
20260510141409 10 217 1.6 3.2 0.00 0.03 0.03 60 1013.9
20260510140905 10 164 1.6 1.6 0.00 0.03 0.03 61 1014.0
20260510140402 10 247 1.6 3.2 0.00 0.03 0.03 60 1014.0
20260510135901 10 32 4.8 4.8 0.00 0.03 0.03 62 1014.2
20260510135357 10 215 0.0 0.0 0.00 0.03 0.03 62 1014.0
20260510134855 10 301 8.0 9.7 0.00 0.03 0.03 62 1013.8
20260510134351 10 11 8.0 12.9 0.00 0.03 0.03 64 1013.9
20260510133847 10 14 3.2 3.2 0.00 0.03 0.03 65 1014.1
20260510133343 9 45 3.2 3.2 0.00 0.03 0.03 66 1013.9
20260510132839 9 30 1.6 3.2 0.00 0.03 0.03 67 1013.6
20260510132338 9 237 1.6 1.6 0.00 0.03 0.03 68 1013.5
20260510131834 9 224 0.0 1.6 0.00 0.03 0.03 69 1013.7
20260510131332 9 258 3.2 4.8 0.00 0.03 0.03 71 1013.2
20260510130828 9 15 11.3 14.5 0.00 0.03 0.03 69 1013.2
20260510130325 8 44 8.0 11.3 0.00 0.03 0.03 69 1012.9
20260510125821 8 15 6.4 9.7 0.00 0.03 0.03 71 1012.9
20260510125318 9 305 4.8 8.0 0.00 0.03 0.03 70 1013.4
20260510124815 9 353 4.8 8.0 0.00 0.03 0.03 72 1013.0
20260510124312 9 9 3.2 3.2 0.00 0.03 0.03 72 1012.9
20260510123807 8 2 6.4 8.0 0.00 0.03 0.03 71 1012.6
20260510123303 9 313 4.8 4.8 0.00 0.03 0.03 72 1013.0
20260510122759 9 289 4.8 4.8 0.00 0.03 0.03 70 1012.6
20260510122256 9 19 4.8 8.0 0.00 0.03 0.03 71 1012.5
20260510121752 9 254 1.6 1.6 0.00 0.03 0.03 72 1012.8
20260510121250 9 267 3.2 4.8 0.00 0.03 0.03 73 1012.6
20260510120747 8 292 0.0 1.6 0.00 0.03 0.03 73 1012.4
20260510120243 8 291 4.8 9.7 0.00 0.03 0.03 72 1012.3
20260510115739 8 44 4.8 8.0 0.00 0.03 0.03 72 1012.3
20260510115238 8 235 1.6 1.6 0.00 0.03 0.03 73 1012.2
20260510114732 8 238 4.8 8.0 0.00 0.03 0.03 72 1011.6
20260510114230 8 38 8.0 9.7 0.00 0.03 0.03 71 1011.7
20260510113725 8 27 6.4 9.7 0.00 0.03 0.03 73 1011.5
20260510113222 8 344 9.7 11.3 0.00 0.03 0.03 71 1011.6
20260510112718 8 213 4.8 4.8 0.00 0.03 0.03 72 1011.5
20260510112216 8 341 1.6 3.2 0.00 0.03 0.03 73 1011.3
20260510111711 8 344 3.2 4.8 0.00 0.03 0.03 78 1011.2
20260510111209 8 273 3.2 3.2 0.00 0.03 0.03 79 1010.9
20260510110709 8 337 4.8 8.0 0.00 0.03 0.03 78 1010.9
20260510110207 8 357 4.8 8.0 0.00 0.03 0.03 78 1011.0
20260510105706 8 244 1.6 1.6 0.00 0.03 0.03 79 1010.8
20260510105201 8 332 6.4 8.0 0.00 0.03 0.03 79 1010.7
20260510104658 8 320 6.4 9.7 0.00 0.03 0.03 81 1010.1
20260510104155 8 312 3.2 3.2 0.00 0.03 0.03 81 1010.4
20260510103652 8 249 1.6 3.2 0.00 0.03 0.03 82 1010.2
20260510103148 8 300 1.6 3.2 0.00 0.03 0.03 82 1009.9
20260510102648 8 241 1.6 1.6 0.00 0.03 0.03 82 1009.8
20260510102145 8 279 4.8 8.0 0.00 0.03 0.03 82 1010.0
20260510101642 8 238 3.2 3.2 0.00 0.03 0.03 83 1009.7
20260510101140 8 352 4.8 4.8 0.00 0.03 0.03 84 1009.6
20260510100636 8 262 3.2 3.2 0.00 0.03 0.03 84 1009.6
20260510100134 8 235 1.6 1.6 0.00 0.03 0.03 84 1009.6
20260510095629 8 285 3.2 4.8 0.00 0.03 0.03 84 1009.7
20260510095124 8 212 1.6 3.2 0.00 0.03 0.03 85 1009.6
20260510094623 8 270 1.6 1.6 0.00 0.03 0.03 85 1009.3
20260510094119 8 252 1.6 1.6 0.00 0.03 0.03 85 1009.6
20260510093616 8 277 1.6 1.6 0.00 0.03 0.03 85 1009.4
20260510093113 8 229 0.0 1.6 0.00 0.03 0.03 85 1009.3
20260510092609 8 325 4.8 4.8 0.00 0.03 0.03 85 1009.0
20260510092109 8 270 1.6 3.2 0.00 0.03 0.03 84 1008.9
20260510091606 8 236 6.4 9.7 0.00 0.03 0.03 85 1008.8
20260510091102 9 319 4.8 4.8 0.00 0.03 0.03 84 1008.7
20260510090559 9 316 4.8 4.8 0.00 0.03 0.03 83 1008.8
20260510090055 9 328 4.8 8.0 0.00 0.03 0.03 82 1008.6
20260510085550 9 286 1.6 3.2 0.00 0.03 0.03 82 1008.5
20260510085046 9 233 1.6 1.6 0.00 0.03 0.03 83 1008.6
20260510084543 9 272 3.2 3.2 0.00 0.03 0.03 86 1008.6
20260510084039 8 85 3.2 3.2 0.00 0.03 0.03 89 1008.4
20260510083536 8 218 0.0 0.0 0.00 0.03 0.03 92 1008.0
20260510083032 8 235 0.0 1.6 0.00 0.03 0.03 93 1008.1
20260510082529 8 239 0.0 0.0 0.00 0.03 0.03 94 1008.0
20260510082025 8 221 0.0 0.0 0.00 0.03 0.03 94 1008.0
20260510081520 8 221 0.0 0.0 0.00 0.03 0.03 94 1008.0
20260510081016 7 220 0.0 0.0 0.00 0.03 0.03 94 1007.8
20260510080515 8 228 0.0 0.0 0.00 0.03 0.03 93 1007.5
20260510080012 8 228 0.0 0.0 0.00 0.03 0.03 93 1007.5
20260510075509 8 227 0.0 0.0 0.00 0.03 0.03 93 1007.4
20260510075006 8 227 0.0 0.0 0.00 0.03 0.03 93 1007.2
20260510074504 8 241 0.0 0.0 0.00 0.03 0.03 93 1006.9
20260510073959 8 216 0.0 0.0 0.00 0.03 0.03 93 1007.0
20260510073455 8 215 0.0 0.0 0.00 0.03 0.03 93 1006.9
20260510072952 8 226 0.0 0.0 0.00 0.03 0.03 92 1006.8
20260510072449 8 226 0.0 0.0 0.00 0.03 0.03 92 1007.0
20260510071944 8 220 0.0 0.0 0.00 0.03 0.03 92 1006.7
20260510071441 8 225 0.0 0.0 0.00 0.03 0.03 91 1006.8
20260510070939 8 228 0.0 0.0 0.00 0.03 0.03 90 1006.9
20260510070436 8 224 0.0 1.6 0.00 0.03 0.03 89 1006.8
20260510065931 9 225 0.0 0.0 0.00 0.03 0.03 89 1006.6
20260510065428 9 222 0.0 0.0 0.00 0.03 0.03 87 1006.6
20260510064924 9 223 0.0 0.0 0.00 0.03 0.03 87 1006.7
20260510064422 10 252 1.6 1.6 0.00 0.03 0.03 87 1006.6
20260510063919 10 224 0.0 0.0 0.00 0.03 0.03 86 1006.3
20260510063415 10 223 0.0 0.0 0.00 0.03 0.03 85 1006.5
20260510062913 10 218 0.0 0.0 0.00 0.03 0.03 84 1006.5
20260510062408 10 219 0.0 1.6 0.00 0.03 0.03 83 1006.5
20260510061904 10 218 1.6 1.6 0.00 0.03 0.03 82 1006.3
20260510061400 10 17 4.8 4.8 0.00 0.03 0.03 83 1006.2
20260510060856 10 232 3.2 3.2 0.00 0.03 0.03 82 1006.4
20260510060353 11 15 1.6 3.2 0.00 0.03 0.03 83 1006.4
20260510055849 11 212 1.6 3.2 0.00 0.03 0.03 84 1006.1
20260510055349 11 274 1.6 1.6 0.00 0.03 0.03 85 1006.2
20260510054848 11 322 9.7 12.9 0.00 0.03 0.03 85 1006.2
20260510054344 11 245 6.4 9.7 0.00 0.03 0.03 88 1006.1
20260510053839 11 273 3.2 3.2 0.00 0.03 0.03 91 1006.0
20260510053335 11 222 3.2 3.2 0.00 0.03 0.03 92 1006.0
20260510052831 11 87 4.8 4.8 0.00 0.03 0.03 92 1005.7
20260510052327 12 1 11.3 14.5 0.00 0.03 0.03 93 1005.5
20260510051824 12 55 1.6 3.2 0.00 0.03 0.03 92 1005.3
20260510051321 13 250 3.2 3.2 0.00 0.03 0.03 91 1005.0
20260510050817 13 224 0.0 0.0 0.00 0.03 0.03 88 1004.8
20260510050314 13 221 1.6 1.6 0.18 0.03 0.03 88 1004.6
20260510045811 14 270 1.6 3.2 0.18 0.03 0.03 87 1004.4
20260510045308 13 58 3.2 3.2 0.00 0.00 0.00 88 1004.9
20260510044805 13 343 3.2 3.2 0.00 0.00 0.00 88 1004.3
20260510044302 13 212 3.2 3.2 0.00 0.00 0.00 89 1004.6
20260510043758 13 227 0.0 0.0 0.00 0.00 0.00 88 1004.4
20260510043254 13 269 3.2 3.2 0.00 0.00 0.00 88 1003.8
20260510042752 13 213 0.0 0.0 0.00 0.00 0.00 88 1003.0
20260510042247 13 207 1.6 1.6 0.00 0.00 0.00 88 1003.3
20260510041744 13 212 1.6 1.6 0.00 0.00 0.00 87 1002.9
20260510041242 13 209 1.6 1.6 0.00 0.00 0.00 86 1003.1
20260510040739 13 213 0.0 1.6 0.00 0.00 0.00 87 1003.0
20260510040236 13 214 0.0 0.0 0.00 0.00 0.00 88 1002.9
20260510035731 13 216 0.0 1.6 0.00 0.74 0.74 87 1002.8
20260510035227 13 213 0.0 1.6 0.00 0.74 0.74 87 1002.8
20260510034723 13 227 1.6 3.2 0.00 0.74 0.74 87 1003.0
20260510034221 13 200 3.2 3.2 0.00 0.74 0.74 87 1002.9
20260510033717 14 201 1.6 1.6 0.00 0.74 0.74 87 1003.1
20260510033215 14 190 1.6 3.2 0.00 0.74 0.74 87 1003.1
20260510032711 14 203 3.2 3.2 0.00 0.74 0.74 87 1003.1
20260510032207 13 216 4.8 4.8 0.00 0.74 0.74 86 1002.9
20260510031701 13 221 3.2 3.2 0.00 0.74 0.74 87 1002.9
20260510031159 13 198 1.6 3.2 0.00 0.74 0.74 88 1002.8
20260510030658 13 224 1.6 1.6 0.00 0.74 0.74 89 1002.7
20260510030156 12 225 3.2 3.2 0.00 0.74 0.74 93 1003.3
20260510025653 12 204 1.6 3.2 0.00 0.74 0.74 94 1002.9
20260510025150 12 209 3.2 3.2 0.00 0.74 0.74 95 1003.0
20260510024647 12 208 1.6 1.6 0.00 0.74 0.74 94 1002.7
20260510024143 12 209 1.6 3.2 0.00 0.74 0.74 94 1002.8
20260510023639 13 207 3.2 3.2 0.00 0.74 0.74 93 1002.9
20260510023137 13 193 1.6 3.2 0.00 0.74 0.74 94 1002.8
20260510022637 12 207 1.6 3.2 0.00 0.74 0.74 94 1002.9
20260510022132 12 198 1.6 3.2 0.00 0.74 0.74 96 1003.1
20260510021628 12 197 3.2 3.2 0.00 0.74 0.74 97 1003.0
20260510021126 12 230 4.8 8.0 0.00 0.74 0.74 98 1003.3
20260510020626 12 209 1.6 3.2 0.00 0.74 0.74 98 1002.8
20260510020121 12 205 1.6 3.2 0.00 0.74 0.74 97 1002.7
20260510015618 12 208 1.6 1.6 0.00 0.74 0.74 97 1002.3
20260510015114 12 214 0.0 0.0 0.00 0.74 0.74 97 1002.5
20260510014610 12 211 1.6 1.6 0.00 0.74 0.74 97 1002.1
20260510014108 12 213 0.0 1.6 0.00 0.74 0.74 96 1002.3
20260510013602 12 202 1.6 1.6 0.00 0.74 0.74 96 1002.2
20260510013058 12 214 1.6 1.6 0.00 0.74 0.74 96 1002.4
20260510012557 12 209 1.6 1.6 0.00 0.74 0.74 96 1002.2
20260510012054 12 214 0.0 0.0 0.00 0.74 0.74 95 1002.3
20260510011553 12 211 1.6 1.6 0.00 0.74 0.74 95 1002.0
20260510011049 12 211 1.6 1.6 0.00 0.74 0.74 94 1002.3
20260510010546 12 203 1.6 1.6 0.00 0.74 0.74 95 1002.0
20260510010043 12 212 1.6 1.6 0.00 0.74 0.74 95 1002.1
20260510005539 13 216 0.0 1.6 0.00 0.74 0.74 94 1002.0
20260510005037 13 214 1.6 1.6 0.00 0.74 0.74 94 1002.0
20260510004534 13 227 1.6 1.6 0.00 0.74 0.74 94 1001.9
20260510004032 13 210 1.6 3.2 0.00 0.74 0.74 94 1002.1
20260510003529 13 213 0.0 1.6 0.00 0.74 0.74 94 1002.0
20260510003024 13 211 4.8 8.0 0.00 0.74 0.74 94 1002.1
20260510002520 13 227 3.2 3.2 0.00 0.74 0.74 95 1002.1
20260510002017 13 205 0.0 0.0 0.00 0.74 0.74 94 1002.1
20260510001514 13 199 3.2 3.2 0.00 0.74 0.74 94 1002.2
20260510001012 13 215 4.8 4.8 0.00 0.74 0.74 94 1002.0
20260510000512 13 211 1.6 1.6 0.00 0.74 0.74 95 1002.2
20260510000010 13 236 1.6 1.6 0.00 0.74 0.74 94 1002.0
20260509235507 13 211 1.6 3.2 0.00 0.74 0.74 94 1002.0
20260509235003 13 209 1.6 3.2 0.00 0.74 0.74 94 1002.0
20260509234459 13 250 4.8 4.8 0.00 0.74 0.74 95 1002.0
20260509233957 13 218 4.8 4.8 0.00 0.74 0.74 96 1001.8
20260509233454 13 204 4.8 4.8 0.00 0.74 0.74 96 1001.8
20260509232950 13 229 3.2 4.8 0.00 0.74 0.74 96 1001.8
20260509232448 13 233 3.2 4.8 0.00 0.74 0.74 96 1001.7
20260509231944 13 215 3.2 3.2 0.00 0.74 0.74 96 1001.7
20260509231441 13 227 0.0 0.0 0.00 0.74 0.74 96 1001.9
20260509230939 13 258 4.8 4.8 0.00 0.74 0.74 96 1001.6
20260509230435 13 224 4.8 4.8 0.00 0.74 0.74 96 1001.8
20260509225931 13 223 3.2 3.2 0.00 0.74 0.74 96 1002.0
20260509225428 13 225 3.2 3.2 0.00 0.74 0.74 96 1002.0
20260509224924 13 206 1.6 3.2 0.79 0.74 0.74 96 1001.8
20260509224419 13 134 1.6 3.2 1.50 0.74 0.74 95 1001.8
20260509223917 13 147 1.6 1.6 3.07 0.58 0.58 94 1002.5
20260509223414 13 339 4.8 4.8 2.95 0.48 0.48 92 1002.2
20260509222911 19 331 8.0 11.3 0.00 0.00 0.00 70 1001.8
20260509222406 20 344 6.4 9.7 0.00 0.00 0.00 66 1001.4
20260509221901 20 287 6.4 8.0 0.00 0.00 0.00 55 999.9
20260509221359 20 221 11.3 17.7 0.00 0.00 0.00 55 999.3
20260509220855 20 220 14.5 20.9 0.00 0.00 0.00 53 999.5
20260509220351 21 287 4.8 9.7 0.00 0.00 0.00 53 999.9
20260509215846 21 159 14.5 25.7 0.00 0.00 0.00 55 999.8
20260509215343 21 212 11.3 14.5 0.00 0.00 0.00 53 999.7
20260509214840 21 209 1.6 1.6 0.00 0.00 0.00 53 999.9
20260509214338 21 223 14.5 22.5 0.00 0.00 0.00 53 1000.0
20260509213835 21 223 12.9 17.7 0.00 0.00 0.00 51 999.9
20260509213330 22 219 9.7 12.9 0.00 0.00 0.00 51 999.7
20260509212828 22 222 6.4 12.9 0.00 0.00 0.00 52 999.8
20260509212326 22 189 8.0 12.9 0.00 0.00 0.00 51 999.5
20260509211821 22 199 9.7 11.3 0.00 0.00 0.00 53 999.9
20260509211317 22 193 8.0 9.7 0.00 0.00 0.00 53 999.6
20260509210814 22 202 8.0 11.3 0.00 0.00 0.00 54 1000.0
20260509210312 22 216 8.0 11.3 0.00 0.00 0.00 54 999.7
20260509205811 22 239 8.0 12.9 0.00 0.00 0.00 55 999.7
20260509205307 22 226 6.4 9.7 0.00 0.00 0.00 55 999.8
20260509204802 22 232 8.0 14.5 0.00 0.00 0.00 56 999.9
20260509204258 21 222 11.3 14.5 0.00 0.00 0.00 55 1000.1
20260509203754 21 207 8.0 12.9 0.00 0.00 0.00 54 1000.3
20260509203252 21 213 6.4 8.0 0.00 0.00 0.00 54 1000.4
20260509202748 22 228 19.3 25.7 0.00 0.00 0.00 53 1000.6
20260509202245 22 218 9.7 12.9 0.00 0.00 0.00 55 1000.5
20260509201744 21 235 9.7 14.5 0.00 0.00 0.00 56 1000.5
20260509201241 21 235 12.9 16.1 0.00 0.00 0.00 54 1000.9
20260509200738 21 200 8.0 11.3 0.00 0.00 0.00 57 1000.9
20260509200238 21 246 8.0 11.3 0.00 0.00 0.00 56 1000.9
20260509195734 21 181 4.8 8.0 0.00 0.00 0.00 59 1001.0
20260509195229 21 201 8.0 8.0 0.00 0.00 0.00 56 1000.9
20260509194724 21 133 6.4 9.7 0.00 0.00 0.00 55 1001.0
20260509194221 21 218 3.2 4.8 0.00 0.00 0.00 58 1001.0
20260509193718 21 200 4.8 8.0 0.00 0.00 0.00 59 1001.2
20260509193217 21 209 8.0 12.9 0.00 0.00 0.00 57 1001.3
20260509192714 21 199 4.8 4.8 0.00 0.00 0.00 60 1001.3
20260509192209 20 119 12.9 20.9 0.00 0.00 0.00 59 1001.2
20260509191705 21 212 16.1 27.4 0.00 0.00 0.00 58 1001.4
20260509191201 21 203 4.8 12.9 0.00 0.00 0.00 59 1001.4
20260509190658 21 185 8.0 11.3 0.00 0.00 0.00 60 1001.3
20260509190155 21 238 4.8 8.0 0.00 0.00 0.00 62 1001.6
20260509185653 21 215 6.4 9.7 0.00 0.00 0.00 60 1001.7
20260509185148 21 353 8.0 12.9 0.00 0.00 0.00 60 1001.5
20260509184646 21 235 8.0 9.7 0.00 0.00 0.00 59 1001.8
20260509184143 20 233 6.4 9.7 0.00 0.00 0.00 59 1001.9
20260509183640 20 169 4.8 8.0 0.00 0.00 0.00 63 1002.1
20260509183140 20 214 3.2 4.8 0.00 0.00 0.00 64 1002.0
20260509182636 20 226 9.7 11.3 0.00 0.00 0.00 62 1001.9
20260509182134 20 285 4.8 4.8 0.00 0.00 0.00 61 1001.9
20260509181632 20 229 6.4 9.7 0.00 0.00 0.00 62 1002.1
20260509181129 20 168 8.0 11.3 0.00 0.00 0.00 61 1002.1
20260509180625 20 218 8.0 9.7 0.00 0.00 0.00 60 1002.1